[[{"header":{"parameterUnit":"m.s-1","parameterCategory":1,"la1":30.2991,"la2":30.254,"lo1":-89.0895,"lo2":-89.0444,"dy":0.0017,"dx":0.0017,"nx":28,"ny":28,"refTime":"2023-06-28T21:00:00:Z","depth":0,"parameterNumber":2,"parameterNumberName":"U-component_of_WINDS"},"data":[0,0,0,0,0,0,0,0,0,0,0,0,0,0,0,0,0,0,0,0,0,0,0,0,0,0,0,0,0,0,0,0,0,0,0,0,0,0,0,0,0,0,0,0,0,0,0,0,0,0,0,0,0,0,0,0,0,0,-0.6313,-0.6311,0,-0.6177,-0.6175,-0.6174,-0.6105,-0.6105,-0.6105,-0.6105,-0.5962,-0.5958,-0.5954,0,0,0,0,0,0,0,0,0,0,0,0,0,-0.6511,-0.6507,-0.6313,-0.6311,-0.631,-0.6177,-0.6175,-0.6173,-0.6105,-0.6105,-0.6105,-0.6105,-0.5963,-0.5958,-0.5954,0,0,0,0,0,0,0,0,0,0,0,0,0,-0.6405,-0.6506,-0.6313,-0.626,-0.6254,-0.6177,-0.6175,-0.6173,-0.6105,-0.6105,-0.6105,-0.6105,-0.5964,-0.5959,-0.5953,-0.5919,0,0,-0.5936,-0.5933,0,0,0,0,0,0,0,0,-0.6411,-0.6397,-0.6269,-0.6263,-0.6256,-0.6158,-0.6192,-0.6087,-0.6105,-0.6161,-0.6105,-0.6105,-0.6027,-0.6016,-0.599,-0.5912,-0.5906,-0.5935,-0.5932,-0.5929,-0.5928,0,0,0,0,0,0,0,-0.6418,-0.6403,-0.6259,-0.6267,-0.6259,-0.6241,-0.6226,-0.6172,-0.6096,-0.6156,-0.6151,-0.6136,-0.6023,-0.5996,-0.5986,-0.5904,-0.5936,-0.593,-0.5927,-0.5925,-0.579,-0.579,0,0,0,0,0,0,-0.6435,-0.6409,-0.6263,-0.6255,-0.6335,-0.6238,-0.6221,-0.6189,-0.6096,-0.6082,-0.6136,-0.6133,-0.6006,-0.5993,-0.5981,-0.5934,-0.593,-0.5924,-0.5921,-0.579,-0.579,-0.5789,0,0,0,0,0,0,-0.6439,-0.6422,-0.6269,-0.6331,-0.631,-0.6234,-0.62,-0.6187,-0.6159,-0.6081,-0.6067,-0.6123,-0.6005,-0.5989,-0.5935,-0.5928,-0.5922,-0.5916,-0.579,-0.579,-0.579,-0.584,0,0,0,0,0,0,-0.6445,-0.6424,-0.6411,-0.6331,-0.6307,-0.6226,-0.6199,-0.6184,-0.615,-0.6145,-0.6065,-0.6051,-0.6004,-0.5944,-0.5929,-0.592,-0.5912,-0.579,-0.579,-0.579,-0.5839,-0.5842,-0.5844,0,0,0,0,0,-0.6452,-0.643,-0.6411,-0.6394,-0.6289,-0.6226,-0.6212,-0.6159,-0.615,-0.6136,-0.6085,-0.6054,-0.5932,-0.5939,-0.5922,-0.5911,-0.579,-0.579,-0.579,-0.5838,-0.5841,-0.5844,0,0,0,0,0,0,-0.651,-0.6419,-0.6396,-0.6348,-0.6295,-0.6215,-0.6195,-0.6165,-0.6113,-0.611,-0.6046,-0.6028,-0.5979,-0.594,-0.5949,-0.5872,-0.5858,-0.5854,-0.59,-0.5903,-0.5905,-0.5915,-0.5907,0,0,0,0,0,-0.6518,-0.6476,-0.6397,-0.6362,-0.6337,-0.6271,-0.6241,-0.6205,-0.6148,-0.6125,-0.607,-0.6014,-0.5963,-0.5931,-0.588,-0.5833,-0.5814,-0.5817,-0.582,-0.5823,-0.582,-0.5791,-0.5791,-0.5788,-0.5788,-0.5788,0,0,-0.6532,-0.6477,-0.6454,-0.6372,-0.6327,-0.6283,-0.6252,-0.6207,-0.6174,-0.6117,-0.6063,-0.6021,-0.5955,-0.5904,-0.5879,-0.5869,-0.5816,-0.5822,-0.5825,-0.582,-0.5791,-0.5791,-0.5792,-0.5788,-0.5788,-0.5788,0,0,-0.6536,-0.6491,-0.6456,-0.6412,-0.6344,-0.6301,-0.6293,-0.6216,-0.6187,-0.6131,-0.6088,-0.6047,-0.596,-0.5915,-0.588,-0.5867,-0.5835,-0.5852,-0.5866,-0.5839,-0.5839,-0.5839,-0.5833,-0.5832,-0.585,-0.585,-0.585,0,-0.6562,-0.6495,-0.6441,-0.6399,-0.6364,-0.6312,-0.6276,-0.6235,-0.6154,-0.6131,-0.6122,-0.6012,-0.5964,-0.5902,-0.5899,-0.5873,-0.586,-0.586,-0.5844,-0.5843,-0.5842,-0.5836,-0.5834,-0.5852,-0.5852,-0.5852,-0.5851,0,-0.653,-0.6485,-0.6464,-0.6389,-0.6352,-0.6313,-0.6252,-0.622,-0.6188,-0.6144,-0.6088,-0.6029,-0.5964,-0.5947,-0.5914,-0.588,-0.5876,-0.5856,-0.584,-0.5846,-0.5839,-0.5836,-0.5856,-0.5855,-0.5854,-0.5853,0,0,-0.6566,-0.6461,-0.6455,-0.642,-0.6342,-0.6305,-0.6263,-0.6202,-0.6175,-0.6121,-0.6084,-0.6012,-0.5994,-0.5955,-0.5916,-0.5893,-0.5885,-0.5876,-0.5873,-0.5879,-0.5842,-0.5857,-0.5855,-0.5865,-0.5864,-0.5863,-0.5848,0,-0.6557,-0.6481,-0.6432,-0.6375,-0.6331,-0.6282,-0.6245,-0.6193,-0.6152,-0.6108,-0.6062,-0.6012,-0.5992,-0.5968,-0.5942,-0.5892,-0.5877,-0.5892,-0.5827,-0.5826,-0.5845,-0.5852,-0.5867,-0.5855,-0.5845,-0.5844,-0.5844,0,-0.6538,-0.6486,-0.6426,-0.6353,-0.6332,-0.6301,-0.624,-0.6199,-0.6139,-0.611,-0.6067,-0.6028,-0.5981,-0.597,-0.5903,-0.5915,-0.5885,-0.5856,-0.5854,-0.5845,-0.5834,-0.5842,-0.585,-0.5848,-0.5839,-0.5839,-0.584,0,-0.6569,-0.6484,-0.6437,-0.6408,-0.6322,-0.6301,-0.6264,-0.6203,-0.6169,-0.6116,-0.6093,-0.6034,-0.6002,-0.5957,-0.5903,-0.59,-0.5841,-0.5826,-0.5815,-0.5816,-0.5804,-0.5805,-0.5806,-0.5787,-0.5787,-0.5787,-0.5787,0,-0.6564,-0.6529,-0.6449,-0.642,-0.6378,-0.6321,-0.6281,-0.624,-0.6187,-0.6148,-0.6101,-0.6065,-0.5997,-0.5952,-0.591,-0.586,-0.5846,-0.582,-0.5809,-0.5824,-0.5827,-0.5803,-0.5802,-0.5786,-0.5787,-0.5787,-0.5787,0,-0.6591,-0.6537,-0.6482,-0.6405,-0.6385,-0.6358,-0.6291,-0.626,-0.6217,-0.6168,-0.6153,-0.6085,-0.603,-0.5972,-0.5897,-0.5868,-0.582,-0.5805,-0.5841,-0.5834,-0.5826,-0.5828,-0.5811,-0.5805,-0.5792,-0.5792,-0.5792,0,-0.6591,-0.6563,-0.6484,-0.6455,-0.6419,-0.6373,-0.6338,-0.6281,-0.6247,-0.6176,-0.6153,-0.6095,-0.6045,-0.596,-0.5902,-0.5844,-0.5827,-0.5825,-0.5818,-0.5833,-0.5826,-0.5828,-0.5824,-0.5827,-0.5828,-0.5828,-0.5828,0,-0.6597,-0.6572,-0.6524,-0.6467,-0.6428,-0.638,-0.633,-0.6309,-0.6241,-0.6205,-0.6149,-0.611,-0.6034,-0.5977,-0.5912,-0.5872,-0.5839,-0.5832,-0.5826,-0.584,-0.5861,-0.5849,-0.5846,-0.5832,-0.5831,-0.5831,-0.5831,-0.5831,-0.6609,-0.6582,-0.6522,-0.647,-0.6427,-0.6382,-0.6349,-0.6302,-0.6255,-0.6189,-0.6158,-0.6102,-0.6041,-0.5951,-0.5912,-0.5867,-0.5857,-0.5849,-0.5846,-0.5845,-0.5848,-0.587,-0.5855,-0.5855,-0.5854,-0.5854,-0.5854,0,-0.6612,-0.6571,-0.6525,-0.6457,-0.6416,-0.639,-0.6334,-0.6301,-0.6252,-0.62,-0.6152,-0.6087,-0.6031,-0.597,-0.591,-0.5885,-0.5868,-0.5871,-0.5872,-0.5863,-0.5861,-0.5872,-0.5886,-0.5886,-0.5886,-0.5886,-0.5886,-0.5886,-0.6609,-0.656,-0.6528,-0.6457,-0.6416,-0.6362,-0.6332,-0.6289,-0.6247,-0.6177,-0.6131,-0.6092,-0.6035,-0.597,-0.5917,-0.5901,-0.588,-0.5888,-0.5866,-0.5866,-0.5863,-0.5861,-0.587,-0.5884,-0.5884,-0.5872,-0.5872,-0.5872]},{"header":{"parameterUnit":"m.s-1","parameterCategory":1,"la1":30.2991,"la2":30.254,"lo1":-89.0895,"lo2":-89.0444,"dy":0.0017,"dx":0.0017,"nx":28,"ny":28,"refTime":"2023-06-28T21:00:00:Z","depth":0,"parameterNumber":3,"parameterNumberName":"V-component_of_WINDS"},"data":[0,0,0,0,0,0,0,0,0,0,0,0,0,0,0,0,0,0,0,0,0,0,0,0,0,0,0,0,0,0,0,0,0,0,0,0,0,0,0,0,0,0,0,0,0,0,0,0,0,0,0,0,0,0,0,0,0,0,2.7627,2.7627,0,2.7604,2.7604,2.7604,2.7545,2.7544,2.7542,2.7541,2.752,2.7521,2.7521,0,0,0,0,0,0,0,0,0,0,0,0,0,2.7621,2.7622,2.7627,2.7627,2.7626,2.7604,2.7604,2.7604,2.7545,2.7544,2.7542,2.7541,2.752,2.7521,2.7521,0,0,0,0,0,0,0,0,0,0,0,0,0,2.7614,2.7622,2.7627,2.7594,2.7591,2.7604,2.7604,2.7604,2.7545,2.7544,2.7542,2.754,2.752,2.752,2.7521,2.7565,0,0,2.7524,2.7525,0,0,0,0,0,0,0,0,2.7614,2.7614,2.76,2.7597,2.7593,2.7575,2.7594,2.7591,2.7546,2.7563,2.7541,2.7539,2.754,2.7539,2.7539,2.7564,2.7563,2.7524,2.7525,2.7525,2.7525,0,0,0,0,0,0,0,2.7615,2.7615,2.7618,2.7599,2.7596,2.7582,2.7578,2.7593,2.7563,2.7561,2.7557,2.7555,2.7538,2.7538,2.7538,2.7563,2.7524,2.7525,2.7526,2.7526,2.7623,2.7624,0,0,0,0,0,0,2.762,2.7616,2.7619,2.7617,2.7599,2.7583,2.758,2.7583,2.7562,2.7557,2.7557,2.7552,2.7538,2.7537,2.7537,2.7587,2.7525,2.7526,2.7527,2.7621,2.7623,2.7625,0,0,0,0,0,0,2.762,2.7621,2.762,2.7615,2.7614,2.7585,2.759,2.7584,2.7584,2.7559,2.7553,2.7563,2.7536,2.7536,2.7558,2.7586,2.7526,2.7527,2.7618,2.7621,2.7624,2.7688,0,0,0,0,0,0,2.762,2.7621,2.7637,2.7616,2.7615,2.7641,2.7591,2.7585,2.7586,2.758,2.7563,2.7558,2.7535,2.7557,2.7559,2.7586,2.7528,2.7616,2.762,2.7623,2.7683,2.7693,2.7701,0,0,0,0,0,2.762,2.7656,2.7638,2.7639,2.7634,2.7643,2.7642,2.7614,2.7588,2.7604,2.7588,2.7559,2.7582,2.756,2.7562,2.7589,2.7614,2.7618,2.7623,2.7679,2.7691,2.77,0,0,0,0,0,0,2.7682,2.7653,2.7632,2.7663,2.7655,2.7633,2.7652,2.7627,2.7627,2.7622,2.7587,2.7584,2.7612,2.7602,2.7578,2.763,2.7593,2.7598,2.7636,2.7646,2.7655,2.7657,2.7529,0,0,0,0,0,2.7698,2.7708,2.7682,2.7711,2.7709,2.7681,2.7684,2.7663,2.7654,2.7651,2.7636,2.763,2.7636,2.764,2.7644,2.7681,2.7677,2.7701,2.771,2.7717,2.7722,2.7742,2.7752,2.764,2.764,2.764,0,0,2.7734,2.7719,2.7727,2.7723,2.7715,2.7726,2.7679,2.7692,2.77,2.7653,2.7674,2.7663,2.7653,2.7683,2.7696,2.7676,2.7752,2.7723,2.7729,2.773,2.7747,2.7758,2.7767,2.7643,2.7643,2.7642,0,0,2.7804,2.7794,2.7817,2.781,2.7798,2.7779,2.7785,2.7766,2.7757,2.7776,2.7741,2.7751,2.7761,2.7756,2.7755,2.7823,2.7797,2.7825,2.7872,2.7891,2.79,2.7908,2.7933,2.7942,2.783,2.7831,2.7831,0,2.785,2.7864,2.7832,2.7848,2.7848,2.7805,2.7829,2.7823,2.7814,2.7815,2.7793,2.7806,2.7796,2.7825,2.7842,2.7842,2.7848,2.7827,2.7901,2.7908,2.7915,2.7939,2.7948,2.7834,2.7834,2.7833,2.7833,0,2.7921,2.7932,2.7952,2.7943,2.7945,2.7965,2.7937,2.7943,2.7921,2.7905,2.7926,2.7913,2.7914,2.7919,2.7899,2.7945,2.7934,2.7907,2.7869,2.793,2.7952,2.796,2.7839,2.7838,2.7837,2.7836,0,0,2.803,2.8003,2.8011,2.8007,2.7991,2.7999,2.8017,2.8017,2.8023,2.8018,2.8033,2.8043,2.8018,2.8017,2.7995,2.8012,2.8068,2.7983,2.7983,2.8,2.8119,2.814,2.8151,2.805,2.8052,2.8053,2.812,0,2.8097,2.8125,2.8097,2.8132,2.8142,2.8101,2.8117,2.8109,2.8095,2.8101,2.8085,2.8093,2.806,2.8059,2.8074,2.8058,2.8092,2.8053,2.8065,2.8065,2.8069,2.8162,2.8184,2.8248,2.8128,2.813,2.8131,0,2.8178,2.8176,2.8212,2.8194,2.8197,2.8211,2.821,2.8216,2.8207,2.8195,2.8194,2.8167,2.8184,2.8147,2.8171,2.8145,2.8148,2.8141,2.8143,2.8144,2.8102,2.8166,2.8268,2.8278,2.8144,2.8143,2.8142,0,2.8255,2.8262,2.8284,2.8281,2.826,2.8271,2.8263,2.8252,2.8254,2.8252,2.8254,2.8255,2.8255,2.8257,2.8232,2.8207,2.8259,2.8219,2.8251,2.8252,2.8264,2.8264,2.8369,2.8265,2.8265,2.8265,2.8265,0,2.8333,2.8357,2.8318,2.8332,2.8357,2.8325,2.8351,2.8339,2.8329,2.834,2.8305,2.8317,2.8283,2.8291,2.8271,2.8294,2.8295,2.8286,2.8281,2.829,2.8291,2.8292,2.8288,2.8267,2.8267,2.8266,2.8266,0,2.8424,2.8398,2.842,2.8398,2.8393,2.8413,2.8395,2.8407,2.839,2.8405,2.8406,2.838,2.8388,2.8363,2.8366,2.8353,2.8387,2.8374,2.8391,2.8387,2.842,2.8418,2.853,2.8544,2.8431,2.8432,2.8433,0,2.8475,2.8492,2.8472,2.8477,2.8471,2.8479,2.848,2.8449,2.8453,2.8443,2.8457,2.8462,2.8464,2.8478,2.846,2.8463,2.845,2.8489,2.8451,2.8459,2.8452,2.8452,2.8454,2.8498,2.8499,2.85,2.8501,0,2.857,2.8557,2.856,2.856,2.8563,2.8561,2.8557,2.8563,2.8529,2.8535,2.8542,2.8544,2.8548,2.8553,2.8552,2.8544,2.8518,2.8513,2.8521,2.8531,2.854,2.8536,2.8414,2.8511,2.851,2.8509,2.8509,2.8509,2.8644,2.8657,2.8645,2.865,2.8644,2.8641,2.8651,2.8635,2.864,2.8641,2.8622,2.8633,2.8624,2.8619,2.8614,2.8623,2.8605,2.8616,2.8619,2.8622,2.8628,2.8538,2.8623,2.8622,2.8622,2.8622,2.8622,0,2.8737,2.8728,2.8733,2.8728,2.8732,2.8705,2.8699,2.8705,2.8715,2.8708,2.8711,2.8719,2.8724,2.8707,2.8709,2.872,2.8708,2.8722,2.8721,2.872,2.8644,2.8637,2.8732,2.8731,2.8731,2.8731,2.8731,2.8731,2.8787,2.8809,2.8794,2.8812,2.8802,2.8812,2.8811,2.8809,2.8803,2.8814,2.8818,2.8805,2.8794,2.8796,2.88,2.8794,2.8798,2.8816,2.8807,2.8736,2.8725,2.8715,2.8709,2.8817,2.8817,2.8882,2.8883,2.8883]}]]